QZS-3 (42917 NORAD) Tracking and Keplerian Element Data

This shows tracking and keplerian element data for the satellite.

Feedback or suggestion? Click here.




ElementValue
Catalog42917
NameQZS-3
Epoch Orbit451
Epoch Day322.48757115
Epoch Year2018
RAAN146.3384
Inclination0.0549
Eccentricity0.0002069
Argument of Perigee91.9887
Mean Anonmoly121.6866
Mean Motion1.0027644
Decay Rate-3.39E-06
L11 42917U 17048A 18322.48757115 -.00000339 00000-0 00000-0 0 9993
L22 42917 0.0549 146.3384 0002069 91.9887 121.6866 1.00276440 4515

Live tracking and technical data element details for QZS-3 (NORAD 42917). QZS-3 can be tracked NOW for your location showing map with azimuth and elevation plus other details from your city location.

Track the satellite on the map from your city or location and see movement details for azimuth, elevation, latitude, longitude, range, height, and movement on the map or in text.







IsCatalogInMostPopularTable: catalog: 42917, numindb: 135
Update: records affected: 1



GetName: 42917 QZS-3

Hit Count: updated at: Mon, 19 Nov 2018 11:35:49 GMT